Weather History for Shreveport, LA

Change the Weather History Date:

Friday, August 23, 2013

  Actual Average Record
Temperature  
Mean Temperature 86 °F 83 °F  
Max Temperature 99 °F 94 °F 106 °F (2011)
Min Temperature 73 °F 72 °F 58 °F (1949)
Degree Days  
Heating Degree Days 0 0  
Month to date heating degree days 0 0  
Since 1 June heating degree days 0 0  
Since 1 July heating degree days 0 0  
Cooling Degree Days 21 18  
Month to date cooling degree days 460 427  
Year to date cooling degree days 1876 1828  
Since 1 June cooling degree days 1489 1430  
Growing Degree Days 36 (Base 50)    
Moisture  
Dew Point 69 °F    
Average Humidity 59    
Maximum Humidity 82    
Minimum Humidity 35    
Precipitation  
Precipitation 0.00 in 0.08 in 3.47 in (1879)
Month to date precipitation 0.18 2.08  
Year to date precipitation 26.96 33.34  
Snow  
Snow 0.00 in - - ()
Month to date snowfall 0.0  
Since 1 June snowfall 0.0  
Since 1 July snowfall 0.0  
Snow Depth 0.00 in    
Sea Level Pressure  
Sea Level Pressure 29.97 in    
Wind  
Wind Speed 4 mph (East)    
Max Wind Speed 17 mph    
Max Gust Speed 21 mph    
Visibility 10 miles    
Events Thunderstorm    
T = Trace of Precipitation, MM = Missing Value Source: NWS Daily Summary

Daily Weather History Graph

Daily Weather History Graph

Search for Another Location

Airport:

Trip Planner

Search our weather history database for the weather conditions in past years. The results will help you decide how hot, cold, wet, or windy it might be!

Date:

Astronomy

Aug. 23, 2013 Rise Set
Actual Time 6:44 AM CDT 7:50 PM CDT
Civil Twilight 6:19 AM CDT 8:15 PM CDT
Nautical Twilight 5:48 AM CDT 8:45 PM CDT
Astronomical Twilight 5:17 AM CDT 9:17 PM CDT
Moon 9:24 PM CDT (8/23) 9:27 AM CDT (8/23)
Length of Visible Light 13h 56m
Length of Day
13h 05m
Waning Gibbous, 91% of the Moon is Illuminated
Aug 23
Waning Gibbous
Aug 28
Last Quarter
Sep 5
New
Sep 12
First Quarter
Sep 19
Full

Hourly Weather History & Observations

Time (CDT) Temp. Heat Index Dew Point Humidity Pressure Visibility Wind Dir Wind Speed Gust Speed Precip Events Conditions
12:56 AM 80.1 °F 83.2 °F 70.0 °F 71% 30.00 in 10.0 mi Calm Calm - N/A   Clear
1:56 AM 77.0 °F - 70.0 °F 79% 29.99 in 10.0 mi Calm Calm - N/A   Clear
2:56 AM 75.9 °F - 70.0 °F 82% 29.99 in 10.0 mi Calm Calm - N/A   Clear
3:56 AM 75.0 °F - 70.0 °F 84% 29.98 in 10.0 mi Calm Calm - N/A   Clear
4:56 AM 75.0 °F - 70.0 °F 84% 29.98 in 10.0 mi Calm Calm - N/A   Clear
5:56 AM 75.0 °F - 70.0 °F 84% 29.99 in 10.0 mi Calm Calm - N/A   Clear
6:56 AM 75.0 °F - 70.0 °F 84% 30.00 in 10.0 mi Calm Calm - N/A   Partly Cloudy
7:56 AM 78.1 °F - 72.0 °F 81% 30.02 in 10.0 mi SSE 3.5 mph - N/A   Scattered Clouds
8:56 AM 84.9 °F 90.7 °F 72.0 °F 65% 30.02 in 10.0 mi Calm Calm - N/A   Scattered Clouds
9:56 AM 89.1 °F 95.0 °F 71.1 °F 55% 30.02 in 10.0 mi Calm Calm - N/A   Partly Cloudy
10:56 AM 91.9 °F 97.4 °F 70.0 °F 48% 30.02 in 10.0 mi Calm Calm - N/A   Partly Cloudy
11:56 AM 93.9 °F 99.1 °F 69.1 °F 44% 30.01 in 10.0 mi Variable 6.9 mph - N/A   Mostly Cloudy
12:56 PM 96.1 °F 101.6 °F 69.1 °F 41% 29.99 in 10.0 mi ENE 8.1 mph - N/A   Scattered Clouds
1:56 PM 97.0 °F 102.2 °F 68.0 °F 39% 29.96 in 10.0 mi ESE 6.9 mph - N/A   Scattered Clouds
2:39 PM 98.6 °F 102.8 °F 66.2 °F 35% 29.95 in 10.0 mi East 8.1 mph - N/A   Scattered Clouds
2:56 PM 99.0 °F 102.9 °F 66.0 °F 34% 29.94 in 10.0 mi ENE 8.1 mph - N/A Thunderstorm Thunderstorm
3:12 PM 96.8 °F 100.7 °F 66.2 °F 37% 29.94 in 10.0 mi NE 10.4 mph - N/A   Scattered Clouds
3:56 PM 97.0 °F 102.2 °F 68.0 °F 39% 29.93 in 10.0 mi North 10.4 mph - N/A   Scattered Clouds
4:56 PM 99.0 °F 103.5 °F 66.9 °F 35% 29.91 in 10.0 mi NNE 6.9 mph - N/A   Scattered Clouds
5:56 PM 96.1 °F 99.9 °F 66.9 °F 38% 29.90 in 10.0 mi Calm Calm - N/A   Scattered Clouds
6:56 PM 93.0 °F 95.9 °F 66.0 °F 41% 29.90 in 10.0 mi ESE 8.1 mph - N/A   Scattered Clouds
7:56 PM 88.0 °F 92.1 °F 69.1 °F 53% 29.91 in 10.0 mi SE 9.2 mph - N/A   Mostly Cloudy
8:01 PM 87.8 °F 92.6 °F 69.8 °F 55% 29.93 in 10.0 mi ESE 6.9 mph - N/A   Mostly Cloudy
8:56 PM 84.0 °F 87.8 °F 69.1 °F 61% 29.93 in 10.0 mi ESE 3.5 mph - N/A   Scattered Clouds
9:56 PM 81.0 °F 84.1 °F 69.1 °F 67% 29.97 in 10.0 mi East 4.6 mph - N/A   Scattered Clouds
10:56 PM 82.0 °F 85.5 °F 69.1 °F 65% 29.98 in 10.0 mi Calm Calm - N/A   Mostly Cloudy
11:56 PM 81.0 °F 84.4 °F 70.0 °F 69% 29.99 in 10.0 mi East 3.5 mph - N/A   Scattered Clouds